Вернуться в каталог

GLOBALSTAR M097

АктивенСвязьLEO
NORAD 39072·PAYLOAD·🇺🇸 United States

Запущен Feb 6, 2013 с Baikonur Cosmodrome

Loading…

Ближайшие Пролёты (ближайшие 24 часа)

TLE

СвежийSource: Space-Track

Эпоха: Sep 14, 2026, 13:28 UTC

1 39072U 13005A   26257.56148265 -.00000100  00000-0  22171-4 0  9998
2 39072  52.0072 331.2713 0000568 120.6495 239.4427 12.62271230628198

Отслеживайте GLOBALSTAR M097 в реальном времени с AllMySat

Download on the App Store